Location: Mahannah Oil Field
(37.4664°N, 96.6003°W)
Time: 00:34:59
(UTC+00:00)

deb Explorer IX - Pass Details

Date: 23 January 2021
Orbit: 537 x 1102 km, 38.8° (Epoch: 25 February)

Event Time Altitude Azimuth Distance (km) Brightness Sun altitude
Rises 03:24:53 0° 277° (W) 3,378 ? -44.4°
Reaches altitude 10° 03:27:36 10° 279° (W) 2,345 ? -44.9°
Enters shadow 03:27:50 11° 279° (W) 2,258 ? -45.0°
Maximum altitude 03:33:04 80° 6° (N) 709 - -46.0°
Drops below altitude 10° 03:37:41 10° 94° (E) 1,996 - -46.9°
Sets 03:39:51 0° 95° (E) 2,837 - -47.3°
